Starlink 31822

operational
NORAD ID: 59752 Int'l Des: 2024-090 Owner: SPXS Country: US Constellation: starlink
LEOCIRCULAR

Starlink 31822について

説明を読み込み中...

リアルタイム位置

3D地球を読み込み中...

次回通過

高度履歴

Altitude vs Time

uPlot chart will show altitude changes over time

軌道要素

1 59752U 24090Y 25259.25234837 .00001823 00000-0 75733-4 0 9993
2 59752 43.0050 88.4994 0001736 272.6315 87.4338 15.27586990 76757
Epoch: Sep 16, 2025 • Age: 7 hours

現在のステータス

高度 482.7 km
速度 7.63 km/s
衛星直下点 2.59°N, 71.82°E
打ち上げ日 May 13, 2024
運用期間 1.3 years
タイプ internet

技術仕様

分類 Payload
質量 730.00 kg
乾燥質量 700.00 kg
総質量 730.00 kg
長さ 0.30 m
直径 4.10 m
スパン 29.00 m
形状 Box + pan
製造者 SPXS
バスタイプ Starlink V2M
フェーズステータス In Orbit
所有者/国 SPXS/US

大規模コンステレーション

Loading constellations...